Location: Fort Wayne
(41.1310°N, 85.1290°W)
Time: 06:40:22
(UTC-04:00)

Daily predictions for brighter satellites

Satellite Brightness Start Highest point End
(mag) Time Altitude Azimuth Time Altitude Azimuth Time Altitude Azimuth
SL-16 R/B 2.3 21:43:01 10° NNW 21:48:42 73° ENE 21:54:21 10° SSE
Cosmos 1980 Rocket 3.4 21:44:16 10° NW 21:49:34 41° WSW 21:54:50 10° S
Cosmos 2360 Rocket 3.3 21:45:09 10° N 21:50:07 31° ENE 21:55:04 10° ESE
Cosmos 405 Rocket 4.3 21:47:23 10° SW 21:50:51 37° WNW 21:54:22 10° N
Cosmos 1515 Rocket 3.9 21:47:20 10° N 21:51:39 48° E 21:55:55 10° SSE
Cosmos 1939 Rocket 3.0 21:49:46 10° SSE 21:53:40 59° ENE 21:57:32 10° N
Cosmos 1908 4.3 21:50:16 10° NNE 21:53:43 30° ENE 21:57:10 10° SE
AVUM R/B 4.3 21:53:17 10° SE 21:54:41 15° ESE 21:56:08 10° ENE
In-Cosmos 22 4.3 21:50:39 10° S 21:56:23 72° E 22:02:08 10° NNE
Cosmos 2266 Rocket 4.4 21:51:56 10° SSE 21:57:50 43° E 22:03:40 10° NNE
Cosmos 1553 Rocket 4.1 21:52:14 10° N 21:58:41 80° E 22:05:01 10° S
Nimbus 7 Rocket 4.5 21:53:34 10° NNE 21:59:21 57° ESE 22:05:05 10° S
USA 229 DEB 3.8 21:56:32 10° SSW 22:03:17 60° ESE 22:10:08 10° NE
USA 229 3.8 21:56:39 10° SSW 22:03:23 59° ESE 22:10:14 10° NE
Cosmos 773 Rocket 4.3 22:00:34 10° N 22:05:39 53° ENE 22:10:40 10° SE
MetOp-B 4.5 22:06:36 10° SE 22:11:45 51° ENE 22:16:56 10° N
Cosmos 2151 3.7 22:10:29 10° SSE 22:14:17 34° E 22:18:06 10° NNE
Cosmos 1674 3.0 22:10:47 10° SSE 22:14:27 48° E 22:18:10 10° NNE
Terra 3.9 22:13:33 10° E 22:15:50 14° ENE 22:18:08 10° NNE
CZ-4 SHROUD 3.4 22:14:01 12° SSE 22:16:49 57° ENE 22:19:55 10° N
Cosmos 1437 Rocket 2.7 22:13:05 10° N 22:16:54 71° E 22:20:37 11° SSE
Cosmos 1833 4.3 22:12:28 10° S 22:18:02 56° ESE 22:23:36 10° NNE
Cosmos 968 Rocket 4.0 22:14:23 10° SSW 22:19:31 65° WNW 22:24:44 10° NNE
Cosmos 2333 Rocket 4.4 22:17:39 10° NNE 22:19:56 12° NE 22:22:13 10° ENE
GPS 2-04 Rocket1 4.5 22:18:00 10° WSW 22:21:20 21° SSW 22:23:58 13° SSE
Cosmos 1151 Rocket 3.1 22:17:26 10° N 22:21:42 59° E 22:25:32 13° SSE
Cosmos 1300 4.3 22:20:12 10° NNE 22:23:06 20° ENE 22:25:08 14° ESE
Meteor 1-21 Rocket 4.5 22:22:51 10° SSW 22:28:23 71° W 22:33:55 10° N
COSMOS 2428 3.8 22:27:22 10° N 22:32:27 33° ENE 22:36:34 14° ESE
Envisat 3.5 22:31:20 10° S 22:36:19 60° W 22:41:22 10° NNW
H-2A R/B 3.3 22:32:21 10° S 22:36:37 41° W 22:40:56 10° NNW
Cosmos 1328 3.9 22:34:24 14° SSE 22:37:37 53° E 22:41:30 10° NNE
Cosmos 1707 Rocket 4.4 22:34:17 10° NNE 22:38:15 33° ENE 22:40:38 19° SE
DELTA 2 R/B (1) 3.6 22:36:00 10° W 22:41:31 68° S 22:45:57 16° ESE
Cosmos 1666 Rocket 4.5 22:39:51 19° SE 22:42:06 31° E 22:45:59 10° NNE
Cosmos 2112 Rocket 4.2 22:39:02 10° NNW 22:44:13 61° ENE 22:47:47 20° SE
Cosmos 2058 3.2 22:42:56 19° SSE 22:45:34 46° E 22:49:31 10° NNE
ATLAS 2AS CENTAUR R/B 4.4 22:45:18 13° ESE 22:46:32 14° E 22:50:02 10° ENE
YAOGAN 6 2.6 22:46:03 19° S 22:48:35 85° W 22:52:13 10° NNW
SPOT 5 3.4 22:45:55 11° S 22:50:09 53° W 22:54:47 10° NNW
Cosmos 2219 Rocket 3.7 22:48:31 10° N 22:53:05 25° NE 22:56:41 14° ESE
Cosmos 405 3.7 22:49:33 10° NNW 22:53:06 53° W 22:55:47 16° S
Cosmos 1437 2.9 22:52:16 14° SSW 22:54:57 76° W 22:58:15 10° N
ARGOS 3.1 22:55:49 20° SSE 22:59:38 81° ENE 23:05:03 10° NNW
H-2A R/B 2.7 23:00:41 23° SE 23:03:38 45° ENE 23:08:47 10° N
BREEZE-M DEB (TANK) 4.2 23:03:18 10° NNW 23:04:50 18° NNE 23:06:46 10° ENE
SL-14 R/B 3.4 23:05:20 31° SSE 23:06:57 54° E 23:10:51 10° NNE
Cosmos 1703 4.2 23:07:24 28° ESE 23:08:04 29° E 23:11:30 10° NNE
IGS 5A 4.4 23:07:27 26° ESE 23:08:59 34° ENE 23:12:47 10° N
Cosmos 2219 3.2 23:03:17 10° SSW 23:09:00 79° ESE 23:14:47 10° NNE
Meteor 1-27 4.2 23:03:28 10° N 23:09:12 74° E 23:12:32 25° SSE
SL-08 RB Rocket 3.6 23:08:39 27° SSE 23:11:06 88° ENE 23:15:36 10° NNW
NOSS 3-1 (C) 3.4 23:05:34 10° SSW 23:11:16 59° ESE 23:17:33 10° NE
Cosmos 1271 Rocket 3.5 23:10:21 10° N 23:13:55 36° ENE 23:14:50 31° ESE
Cosmos 2242 Rocket 4.0 23:10:33 10° N 23:14:54 49° E 23:16:33 33° SE
SPOT 1/Viking Rocket 3.9 23:12:06 19° S 23:15:41 60° WSW 23:20:48 10° NNW
Cosmos 2322 4.1 23:11:45 10° NNW 23:17:22 57° WSW 23:20:54 22° S
DELTA 2 DEB (DPAF) 4.1 23:16:07 31° SSE 23:18:14 81° ENE 23:22:44 10° N
Delta 2 Rocket 4.3 23:16:10 10° SW 23:17:57 23° SSW 23:17:57 23° SSW
Cosmos 2237 Rocket 3.6 23:15:18 10° N 23:20:08 27° NE 23:23:15 17° E
Cosmos 1726 2.0 23:17:32 10° N 23:21:20 79° E 23:22:28 43° SSE
Cosmos 1680 Rocket 4.1 23:16:38 10° NNW 23:21:43 52° WSW 23:24:52 22° S
Cosmos 2322 Rocket 4.4 23:19:23 10° WNW 23:22:49 17° W 23:26:15 10° SW
SAR-Lupe-2 4.1 23:22:48 38° ESE 23:23:29 44° ENE 23:26:55 10° N
USA 245 4.2 23:26:25 21° SW 23:27:05 23° W 23:29:12 10° NW
Iridium 2 3.9 23:28:43 46° SE 23:29:23 54° E 23:33:08 10° NNE
Cosmos 2360 Rocket 3.2 23:28:58 10° NW 23:34:11 39° WSW 23:37:27 21° SSW
Cosmos 2150 Rocket 4.0 23:31:21 24° S 23:34:45 79° ESE 23:40:14 10° NNE
Cosmos 1898 Rocket 3.4 23:33:17 26° S 23:36:14 79° ESE 23:41:27 10° NNE
Cosmos 1862 Rocket 4.3 23:32:27 10° N 23:36:31 37° ENE 23:37:19 34° ESE
Landsat 7 3.9 23:35:02 33° S 23:37:06 71° WSW 23:41:53 10° NNW
CARTOSAT-1 3.5 23:37:19 44° SSE 23:38:41 89° ENE 23:43:01 10° NNW
DMSP B5D2-2 4.0 23:34:54 10° NNE 23:40:08 74° ESE 23:42:27 34° S
Cosmos 1633 Rocket 3.3 23:42:16 29° SSW 23:44:23 64° W 23:48:44 10° N
Cosmos 858 Rocket 4.4 23:42:00 28° SSW 23:44:48 85° ESE 23:50:02 10° NNE
Sich 1 3.5 23:42:31 27° SSW 23:44:49 59° W 23:49:12 10° N
Spot 4 3.8 23:44:36 43° SSE 23:46:10 78° ENE 23:51:02 10° N
Terra 1.9 23:51:23 41° S 23:52:58 71° WSW 23:57:44 10° NNW
Cosmos 292 Rocket 3.6 23:48:22 10° NNW 23:53:10 87° ENE 23:54:23 51° SSE
